CDT,Max TemperatureF,Mean TemperatureF,Min TemperatureF,Max Dew PointF,MeanDew PointF,Min DewpointF,Max Humidity, Mean Humidity, Min Humidity, Max Sea Level PressureIn, Mean Sea Level PressureIn, Min Sea Level PressureIn, Max VisibilityMiles, Mean VisibilityMiles, Min VisibilityMiles, Max Wind SpeedMPH, Mean Wind SpeedMPH, Max Gust SpeedMPH,PrecipitationIn, CloudCover, Events, WindDirDegrees
2013-7-1,82,70,57,57,52,45,88,58,28,30.12,30.08,30.05,10,10,10,18,5,25,0.00,1,,360
2013-7-2,80,66,53,59,53,45,100,66,30,30.14,30.10,30.05,10,10,7,12,2,16,0.00,1,Rain-Thunderstorm,18
2013-7-3,84,70,55,64,58,50,100,76,33,30.08,30.05,30.01,10,10,4,16,2,21,0.00,2,Rain-Thunderstorm,244
2013-7-4,84,70,55,61,58,54,100,69,35,30.07,30.02,29.96,10,9,4,9,2,,0.00,0,,153
2013-7-5,87,74,62,63,60,57,94,63,37,30.02,29.97,29.91,10,10,10,12,4,17,0.00,0,,140
2013-7-6,87,78,68,64,63,63,88,63,43,29.99,29.95,29.91,10,10,10,12,5,17,0.00,1,,153
2013-7-7,89,79,69,70,66,63,94,62,46,29.99,29.95,29.92,10,9,4,14,6,20,0.00,1,Rain,173
2013-7-8,91,84,77,72,68,64,74,62,46,30.04,30.00,29.97,10,10,10,10,4,,0.00,0,,166
2013-7-9,95,84,73,77,72,68,94,68,47,30.02,29.94,29.85,10,10,10,13,4,20,0.00,0,Rain,159
2013-7-10,89,79,69,75,65,54,84,58,29,30.06,29.98,29.88,10,10,10,15,5,24,0.00,1,,356
2013-7-11,86,73,60,64,59,52,100,64,33,30.10,30.06,30.00,10,10,10,12,2,16,0.00,0,,105
2013-7-12,86,74,62,63,60,55,94,59,35,30.09,30.04,29.99,10,10,10,12,4,20,0.00,0,,131
2013-7-13,86,77,68,66,61,59,73,60,45,30.06,30.03,29.98,10,10,10,10,5,16,0.00,0,Rain,124
2013-7-14,86,73,60,63,61,55,100,63,35,30.13,30.07,30.03,10,10,10,14,4,21,0.00,1,Rain,107
2013-7-15,87,76,64,70,66,63,100,71,46,30.21,30.16,30.12,10,10,7,12,2,18,0.00,2,,116
2013-7-16,91,80,68,72,69,64,100,73,43,30.28,30.23,30.19,10,10,10,8,1,,0.00,1,,141
2013-7-17,91,80,69,73,70,63,100,74,40,30.33,30.27,30.20,10,10,5,9,1,,0.00,0,Thunderstorm,183
2013-7-18,95,82,69,73,68,61,100,68,32,30.22,30.12,29.99,10,10,7,10,2,16,0.00,0,,199
2013-7-19,96,82,68,73,67,61,100,64,30,30.00,29.94,29.85,10,10,10,13,2,21,0.00,1,,240
2013-7-20,80,76,71,77,72,66,100,86,61,29.95,29.91,29.87,10,10,7,8,2,,0.00,2,Rain-Thunderstorm,314
2013-7-21,86,78,71,73,71,66,100,84,51,29.92,29.87,29.81,10,10,1,8,2,,0.00,3,Rain-Thunderstorm,148
2013-7-22,95,82,68,75,70,64,100,75,44,29.87,29.82,29.75,10,8,0,12,2,18,0.00,2,Fog,194
2013-7-23,84,76,68,72,67,61,100,75,51,29.96,29.88,29.80,10,10,10,12,3,16,0.00,1,Thunderstorm,32
2013-7-24,84,72,60,63,58,52,100,62,33,30.06,30.01,29.95,10,10,10,12,4,16,0.00,0,,13
2013-7-25,82,71,60,72,65,61,100,86,51,30.11,30.07,30.02,10,10,7,7,1,,0.00,3,Rain,145
2013-7-26,84,75,66,72,64,52,100,74,37,30.07,30.02,29.97,10,10,10,14,4,18,0.00,4,Rain,311
2013-7-27,77,65,53,55,51,43,100,65,29,30.12,30.05,29.99,10,10,10,13,3,17,0.00,1,,324
2013-7-28,78,64,50,59,50,43,100,66,28,30.07,30.04,30.02,10,10,10,6,1,,0.00,1,,312
2013-7-29,69,64,60,70,64,59,100,97,88,30.12,30.06,30.01,10,9,4,12,3,17,0.00,8,Rain,106
2013-7-30,80,74,68,73,72,68,100,95,74,30.07,30.01,29.99,10,8,1,9,2,,0.00,7,Rain,24
2013-7-31,80,73,66,72,67,63,100,83,54,30.13,30.09,30.05,10,9,2,10,2,,0.00,5,,354